Regional Weather Roundup
Issued by NWS Raleigh/Durham, NC

Home | Current Version | Previous Version | Text Only | Print | Product List | Glossary On
Versions: 1 2 3 4 5 6 7 8 9 10 11 12 13 14 15 16 17 18 19 20 21 22 23 24 25 26 27
000
ASUS42 KRAH 251610
RWRRAH
NORTH CAROLINA WEATHER ROUNDUP
NATIONAL WEATHER SERVICE RALEIGH NC
1200 PM EDT TUE APR 25 2017

NOTE: "FAIR" INDICATES FEW OR NO CLOUDS BELOW 12,000 FEET WITH NO
SIGNIFICANT WEATHER AND/OR OBSTRUCTIONS TO VISIBILITY.

NCZ001-053-055-056-065-067-251700-
WESTERN NORTH CAROLINA

CITY           SKY/WX    TMP DP  RH WIND       PRES   REMARKS
ASHEVILLE      SUNNY     65  51  60 N16G22    29.77S
JEFFERSON      CLOUDY    54  52  94 N6        29.78F
MORGANTON      CLOUDY    64  57  76 W3        29.77S
HICKORY        CLOUDY    64  58  80 NE6       29.72S
RUTHERFORDTON  CLOUDY    68  56  64 NE8G16    29.74S
MOUNT AIRY     NOT AVBL
BOONE          CLOUDY    54  54 100 W9        29.78F FOG
$$

NCZ021-022-025-041-071-084-088-251700-
CENTRAL NORTH CAROLINA

CITY           SKY/WX    TMP DP  RH WIND       PRES   REMARKS
CHARLOTTE      NOT AVBL
GREENSBORO     CLOUDY    58  57  97 N9        29.69S FOG
WINSTON-SALEM  LGT RAIN  59  56  89 N12       29.71F FOG
RALEIGH-DURHAM PTSUNNY   65  59  81 CALM      29.65R
FORT BRAGG     CLOUDY    64  61  88 W7        29.63F
FAYETTEVILLE   LGT RAIN  68  62  81 W6        29.64S
BURLINGTON     CLOUDY    61  57  87 N9        29.67S
LAURINBURG     LGT RAIN  63  61  93 NW9       29.67S
$$

NCZ011-015-027-028-043-044-047-080-103-251700-
NORTHEASTERN NORTH CAROLINA

CITY           SKY/WX    TMP DP  RH WIND       PRES   REMARKS
ROCKY MT-WILSO MOSUNNY   70  61  73 SW6       29.62F
GREENVILLE     PTSUNNY   70  61  73 CALM      29.66S
WASHINGTON     MOSUNNY   68  60  76 CALM      29.63F
ELIZABETH CITY NOT AVBL
MANTEO         CLOUDY    73  63  69 SE8       29.66S
CAPE HATTERAS  RAIN      62  59  90 W3        29.67R VSB 1/2
$$

NCZ078-087-090-091-093-098-101-251700-
SOUTHEASTERN NORTH CAROLINA

CITY           SKY/WX    TMP DP  RH WIND       PRES   REMARKS
LUMBERTON      CLOUDY    63  62  97 W8        29.65S
GOLDSBORO      MOSUNNY   70  63  78 CALM      29.61F
KINSTON        PTSUNNY   72  61  68 CALM      29.63S
KENANSVILLE    PTSUNNY   70  63  78 N3        29.63S
NEW BERN       MOSUNNY   69  63  81 NE3       29.63F
CHERRY POINT   LGT RAIN  71  63  75 VRB3      29.64F
BEAUFORT       CLOUDY    68  66  93 SW6       29.64R
JACKSONVILLE   PTSUNNY   72  61  68 CALM      29.61F
WILMINGTON     MOSUNNY   71  60  68 W12       29.63S
$$





USA.gov is the U.S. government's official web portal to all federal, state and local government web resources and services.